Location: Baptist Memorial Hospital
(34.4976°N, 89.0284°W)
Time: 09:45:56
(UTC+00:00)

Delta 2 Rocket - Pass Details

Date: 29 October 2020
Orbit: 415 x 806 km, 35.6° (Epoch: 26 November)

Event Time Altitude Azimuth Distance (km) Brightness Sun altitude
Rises 23:33:20 0° 282° (WNW) 2,945 8.4 -6.5°
Reaches altitude 10° 23:35:36 10° 279° (W) 2,096 7.6 -7.0°
Maximum altitude 23:40:30 63° 199° (SSW) 804 4.3 -7.9°
Drops below altitude 10° 23:45:55 10° 118° (ESE) 2,307 6.0 -9.0°
Enters shadow 23:47:14 - 117° (ESE) 2,792 6.4 -9.3°
